Retour au catalogue

OPS 4682 DEB

ActifPO
NORAD 38397·DEBRIS·🇺🇸 United States

Lancé Apr 3, 1965 depuis Vandenberg Space Force Base

Loading…

Prochains Passages (prochaines 24 heures)

TLE

FraisSource: Space-Track

Époque: Sep 14, 2026, 07:28 UTC

1 38397U 65027DA  26257.31112562  .00000082  00000-0  24632-3 0  9993
2 38397  90.2591  19.6638 0039775  21.9921 338.2897 13.00034996674435

Suivez OPS 4682 DEB en temps réel avec AllMySat

Download on the App Store